This demonstration page uses our WeatherBlox Daily Observations layout. Learn more.

Left ArrowRight Arrow

39.51506, -84.39828

Hourly Observations for February 6, 2021

Temp ( °F °C ) Dew Point ( °F °C ) Humidity (%) Winds ( mph kmh ) Pressure ( in mb ) Visibility ( mi km ) Precip ( " mm )
12:15 am 00:15 Partly Cloudy 29 -1.7 19 -7.4 65 65 W 10 17 29.96 1015 10 16 0.00 0.00
12:35 am 00:35 Clear 28 -2 18 -7.7 65 65 WSW 13 20 29.97 1015 10 16 0.00 0.00
12:55 am 00:55 Clear 28 -2.4 18 -7.9 66 66 W 10 17 29.97 1015 10 16 0.00 0.00
1:15 am 01:15 Clear 28 -2.5 17 -8.5 64 64 W 16 26 29.98 1015 10 16 0.00 0.00
1:35 am 01:35 Clear 27 -2.8 16 -9.1 62 62 W 10 17 29.99 1016 10 16 0.00 0.00
1:55 am 01:55 Partly Cloudy 26 -3.3 16 -9 65 65 WSW 9 15 30.00 1016 10 16 0.00 0.00
2:15 am 02:15 Clear 25 -3.8 16 -9.1 67 67 W 9 15 30.02 1016 10 16 0.00 0.00
2:35 am 02:35 Clear 25 -3.9 15 -9.2 67 67 W 10 17 30.03 1017 10 16 0.00 0.00
2:55 am 02:55 Clear 24 -4.5 15 -9.4 69 69 W 6 9 30.03 1017 10 16 0.00 0.00
3:15 am 03:15 Clear 23 -4.9 14 -9.9 68 68 W 9 15 30.04 1017 10 16 0.00 0.00
3:35 am 03:35 Clear 23 -5.1 13 -10.4 67 67 W 7 11 30.04 1017 10 16 0.00 0.00
3:55 am 03:55 Partly Cloudy 22 -5.4 13 -10.4 68 68 NW 5 7 30.05 1018 10 16 0.00 0.00
4:15 am 04:15 Clear 21 -5.9 13 -10.5 70 70 WNW 5 7 30.06 1018 10 16 0.00 0.00
4:35 am 04:35 Clear 21 -6.1 13 -10.7 70 70 NNW 5 7 30.06 1018 10 16 0.00 0.00
4:55 am 04:55 Clear 20 -6.4 12 -11.1 70 70 Calm 30.07 1018 10 16 0.00 0.00
5:15 am 05:15 Clear 20 -6.9 11 -11.4 71 71 NE 3 6 30.08 1019 10 16 0.00 0.00
5:35 am 05:35 Clear 19 -7 11 -11.5 71 71 NW 3 6 30.08 1019 10 16 0.00 0.00
5:55 am 05:55 Clear 19 -7.1 11 -11.5 71 71 Calm 30.09 1019 10 16 0.00 0.00
6:15 am 06:15 Clear 18 -7.9 11 -11.8 74 74 WSW 6 9 30.12 1020 10 16 0.00 0.00
6:35 am 06:35 Clear 17 -8.6 12 -10.9 84 84 W 6 9 30.13 1020 10 16 0.00 0.00
6:55 am 06:55 Clear 17 -8.5 10 -12.2 75 75 WSW 6 9 30.15 1021 10 16 0.00 0.00
7:15 am 07:15 Clear 16 -8.7 10 -12.1 77 77 W 5 7 30.16 1021 10 16 0.00 0.00
7:35 am 07:35 Clear 16 -8.8 10 -12 78 78 W 5 7 30.17 1022 10 16 0.00 0.00
7:55 am 07:55 Sunny 17 -8.4 10 -12.2 74 74 SW 5 7 30.18 1022 10 16 0.00 0.00
8:15 am 08:15 Sunny 18 -8 10 -12.3 72 72 W 7 11 30.19 1022 10 16 0.00 0.00
8:35 am 08:35 Sunny 18 -7.6 9 -12.8 67 67 WNW 6 9 30.20 1023 10 16 0.00 0.00
8:55 am 08:55 Sunny 19 -7.2 9 -13 64 64 W 6 9 30.21 1023 10 16 0.00 0.00
9:15 am 09:15 Sunny 20 -6.8 9 -12.7 63 63 WNW 7 11 30.21 1023 10 16 0.00 0.00
9:35 am 09:35 Sunny 20 -6.5 9 -12.7 62 62 WSW 6 9 30.21 1023 10 16 0.00 0.00
9:55 am 09:55 Sunny 21 -5.9 10 -12.1 62 62 WSW 10 17 30.21 1023 10 16 0.00 0.00
10:15 am 10:15 Sunny 21 -6 9 -12.7 59 59 WSW 7 11 30.22 1023 10 16 0.00 0.00
10:35 am 10:35 Sunny 23 -5 10 -12.4 57 57 W 12 19 30.22 1023 10 16 0.00 0.00
10:55 am 10:55 Sunny 24 -4.7 9 -12.7 54 54 W 7 11 30.23 1024 10 16 0.00 0.00
11:15 am 11:15 Sunny 24 -4.2 10 -12.4 53 53 WSW 9 15 30.23 1024 10 16 0.00 0.00
11:35 am 11:35 Sunny 25 -3.8 10 -12.3 52 52 W 7 11 30.23 1024 10 16 0.00 0.00
11:55 am 11:55 Sunny 26 -3.4 8 -13.2 47 47 W 7 11 30.21 1023 10 16 0.00 0.00
12:15 pm 12:15 Sunny 26 -3.2 8 -13.3 46 46 Calm 30.20 1023 10 16 0.00 0.00
12:35 pm 12:35 Sunny 27 -2.9 8 -13.3 45 45 Calm 30.19 1022 10 16 0.00 0.00
12:55 pm 12:55 Sunny 28 -2 10 -12.5 45 45 Calm 30.19 1022 10 16 0.00 0.00
1:15 pm 13:15 Sunny 29 -1.6 10 -12 45 45 SSE 5 7 30.18 1022 10 16 0.00 0.00
1:35 pm 13:35 Sunny 29 -1.6 9 -12.9 42 42 WSW 6 9 30.17 1022 10 16 0.00 0.00
1:55 pm 13:55 Sunny 30 -1.3 9 -12.8 42 42 Calm 30.16 1021 10 16 0.00 0.00
2:15 pm 14:15 Sunny 30 -1.2 10 -12.3 43 43 Calm 30.15 1021 10 16 0.00 0.00
2:35 pm 14:35 Sunny 31 -0.5 11 -11.8 43 43 Calm 30.14 1021 10 16 0.00 0.00
2:55 pm 14:55 Sunny 30 -0.9 10 -12.1 43 43 WNW 3 6 30.13 1020 10 16 0.00 0.00
3:15 pm 15:15 Sunny 31 -0.6 9 -12.6 40 40 Calm 30.13 1020 10 16 0.00 0.00
3:35 pm 15:35 Sunny 31 -0.3 8 -13.2 37 37 SW 5 7 30.12 1020 10 16 0.00 0.00
3:55 pm 15:55 Sunny 31 -0.4 7 -13.8 36 36 WNW 3 6 30.12 1020 10 16 0.00 0.00
4:15 pm 16:15 Sunny 31 -0.4 7 -13.8 36 36 Calm 30.12 1020 10 16 0.00 0.00
4:35 pm 16:35 Sunny 31 -0.5 8 -13.5 37 37 Calm 30.12 1020 10 16 0.00 0.00
4:55 pm 16:55 Sunny 31 -0.5 8 -13.3 38 38 Calm 30.13 1020 10 16 0.00 0.00
5:15 pm 17:15 Partly Cloudy 31 -0.5 9 -12.8 39 39 Calm 30.12 1020 10 16 0.00 0.00
5:35 pm 17:35 Partly Cloudy 30 -0.9 10 -12.3 42 42 Calm 30.12 1020 10 16 0.00 0.00
5:55 pm 17:55 Sunny 29 -1.5 12 -11 49 49 N 5 7 30.11 1020 10 16 0.00 0.00
6:15 pm 18:15 Clear 29 -1.8 13 -10.8 51 51 N 5 7 30.10 1019 10 16 0.00 0.00
6:35 pm 18:35 Clear 28 -2.4 13 -10.3 55 55 NE 8 13 30.09 1019 10 16 0.00 0.00
6:55 pm 18:55 Clear 27 -2.6 15 -9.5 59 59 NE 8 13 30.08 1019 10 16 0.00 0.00
7:15 pm 19:15 Clear 26 -3.1 14 -9.8 60 60 NE 7 11 30.07 1018 10 16 0.00 0.00
7:35 pm 19:35 Clear 26 -3.5 14 -10.1 61 61 NNE 6 9 30.06 1018 10 16 0.00 0.00
7:55 pm 19:55 Clear 25 -3.7 14 -10.1 62 62 NNE 5 7 30.06 1018 10 16 0.00 0.00
8:15 pm 20:15 Clear 25 -3.8 14 -9.8 63 63 N 5 7 30.07 1018 10 16 0.00 0.00
8:35 pm 20:35 Mostly Cloudy 26 -3.6 13 -10.3 60 60 N 8 13 30.07 1018 10 16 0.00 0.00
8:55 pm 20:55 Partly Cloudy 26 -3.5 13 -10.3 60 60 NNW 8 13 30.06 1018 10 16 0.00 0.00
9:15 pm 21:15 Cloudy 26 -3.5 14 -10.1 61 61 N 5 7 30.05 1018 10 16 0.00 0.00
9:35 pm 21:35 Cloudy 26 -3.4 14 -9.9 61 61 NE 6 9 30.05 1018 10 16 0.00 0.00
9:55 pm 21:55 Cloudy 26 -3.5 13 -10.3 60 60 N 6 9 30.06 1018 10 16 0.00 0.00
10:15 pm 22:15 Cloudy 26 -3.5 14 -10 61 61 N 7 11 30.06 1018 10 16 0.00 0.00
10:35 pm 22:35 Cloudy 25 -3.8 13 -10.3 61 61 N 6 9 30.07 1018 10 16 0.00 0.00
10:55 pm 22:55 Cloudy 25 -4 13 -10.3 62 62 N 7 11 30.07 1018 10 16 0.00 0.00
11:15 pm 23:15 Cloudy 24 -4.3 13 -10.5 62 62 N 6 9 30.08 1019 10 16 0.00 0.00
11:35 pm 23:35 Cloudy 24 -4.4 13 -10.5 63 63 N 8 13 30.08 1019 10 16 0.00 0.00
11:55 pm 23:55 Cloudy 23 -4.8 12 -10.9 63 63 N 14 22 30.08 1019 10 16 0.00 0.00

Powered by AerisWeather